This is the latest recevied weather packets stored in our database for station/object GOLDWX. If no packets are shown the sender has not sent any weather packets the latest 10 day(s).
| Time | Temp. | Humidity | Pressure | Rain* | Wind** | Luminosity | Snow |
|---|---|---|---|---|---|---|---|
| 1777914912 | 20° C | 28% | 1009.8 hPa | 0 mm | - | - | - |
| 1777914612 | 20° C | 28% | 1009.8 hPa | 0 mm | - | - | - |
| 1777914010 | 19.44° C | 31% | 1009.9 hPa | 0 mm | - | - | - |
| 1777913709 | 18.89° C | 31% | 1009.9 hPa | 0 mm | - | - | - |
| 1777913108 | 18.33° C | 31% | 1010 hPa | 0 mm | - | - | - |
| 1777912807 | 18.33° C | 31% | 1009.9 hPa | 0 mm | - | - | - |
| 1777912205 | 18.33° C | 32% | 1010 hPa | 0 mm | - | - | - |
| 1777911904 | 18.33° C | 32% | 1010.1 hPa | 0 mm | - | - | - |
| 1777911302 | 17.78° C | 34% | 1010 hPa | 0 mm | - | - | - |
| 1777911002 | 17.78° C | 33% | 1010 hPa | 0 mm | - | - | - |
| 1777910401 | 17.78° C | 37% | 1010.1 hPa | 0 mm | - | - | - |
| 1777910099 | 17.22° C | 38% | 1010.2 hPa | 0 mm | - | - | - |
| 1777909497 | 16.67° C | 38% | 1010.2 hPa | 0 mm | - | - | - |
| 1777909196 | 16.11° C | 40% | 1010.2 hPa | 0 mm | - | - | - |
| 1777908294 | 15.56° C | 41% | 1010.2 hPa | 0 mm | - | - | - |
| 1777907693 | 15° C | 42% | 1010.1 hPa | 0 mm | - | - | - |
| 1777907391 | 15° C | 43% | 1010.2 hPa | 0 mm | - | - | - |
| 1777906790 | 14.44° C | 44% | 1010.2 hPa | 0 mm | - | - | - |
| 1777906489 | 14.44° C | 46% | 1010.1 hPa | 0 mm | - | - | - |
| 1777905887 | 13.89° C | 49% | 1010.3 hPa | 0 mm | - | - | - |
| 1777905587 | 13.33° C | 50% | 1010.2 hPa | 0 mm | - | - | - |
| 1777904985 | 12.22° C | 53% | 1010.4 hPa | 0 mm | - | - | - |
| 1777904684 | 11.67° C | 54% | 1010.4 hPa | 0 mm | - | - | - |
| 1777904082 | 10.56° C | 56% | 1010.3 hPa | 0 mm | - | - | - |
| 1777903781 | 10° C | 57% | 1010.3 hPa | 0 mm | - | - | - |
* Rain since midnight (hover to see other rain measurements)
** Current wind speed in m/s (hover to see current wind gust speed)